Location: Newark
(40.9833°N, 0.0333°W)
Time: 02:18:19
(UTC+00:00)

Transit 2A Rocket - Pass Details

Date: 05 November 2020
Orbit: 588 x 914 km, 66.7° (Epoch: 26 November)

Event Time Altitude Azimuth Distance (km) Brightness Sun altitude
Rises 17:13:40 0° 323° (NW) 3,200 8.5 -4.9°
Reaches altitude 10° 17:16:17 10° 315° (NW) 2,215 7.8 -5.4°
Maximum altitude 17:20:52 37° 249° (WSW) 1,051 6.6 -6.2°
Drops below altitude 10° 17:25:04 10° 182° (S) 2,026 7.4 -7.0°
Sets 17:27:22 0° 174° (S) 2,891 8.1 -7.4°
